Regional Weather Roundup
Issued by NWS

Home | Current Version | Previous Version | Text Only | Print | Product List | Glossary Off
Versions: 1 2 3 4 5 6 7 8 9 10 11 12 13 14 15 16 17 18 19 20 21 22 23 24 25 26 27 28 29 30 31 32 33 34 35 36 37 38 39 40 41 42 43 44 45 46 47 48 49 50

000
ASUS45 KABQ 310201
RWRNM
WEATHER ROUNDUP FOR NEW MEXICO
NATIONAL WEATHER SERVICE ALBUQUERQUE NM
800 PM MDT SAT AUG 30 2014

NOTE: "FAIR" MEANS FEW OR NO CLOUDS BELOW 12,000 FEET AGL WITH NO
       SIGNIFICANT WEATHER OR OBSTRUCTIONS TO VISION.

      THIS PRODUCT IS RELEASED AS TWO VERSIONS.  ONE VERSION NEAR
      THE TOP OF THE HOUR CONTAINING PRELIMINARY DATA FROM ALBUQUERQUE
      AND OTHER STATIONS.  A FINAL VERSION WITH ADDITIONAL DATA IS
      ISSUED ABOUT 10 MINUTES AFTER THE HOUR.

NMZ501-503-504-510>518-310300-
NORTHWEST PLATEAU/NORTHCENTRAL MOUNTAINS

CITY           SKY/WX    TMP DP  RH WIND       PRES   REMARKS
FARMINGTON     CLEAR     83  34  17 CALM      30.00F
LOS ALAMOS     PTCLDY    74  32  21 SW6       30.18S
SANTA FE       PTCLDY    76  39  26 SE3       30.10S
ANGEL FIRE     FAIR      60  37  42 S8        30.26R

$$
NMZ402-403-502-505>509-310300-
WESTCENTRAL MOUNTAINS/SOUTHWEST MOUNTAINS

CITY           SKY/WX    TMP DP  RH WIND       PRES   REMARKS
GALLUP         PTCLDY    75  23  14 SW7       30.12S
SILVER CITY    CLEAR     82  36  18 W7        30.10R

$$
NMZ407-409-411-412-310300-
SOUTHERN DESERTS

CITY           SKY/WX    TMP DP  RH WIND       PRES   REMARKS
LORDSBURG      FAIR      86  43  22 W5        29.98S
DEMING         CLEAR     86  38  18 S5        29.98S
LAS CRUCES     CLEAR     88  37  16 S6        30.02R
HOLLOMAN AFB   CLEAR     86  43  21 S6        29.97R
ALAMOGORDO     CLEAR     81  46  30 S7        29.99S
T OR C         CLEAR     86  40  19 S8        30.01R

$$
NMZ519>523-310300-
CENTRAL VALLEYS/CENTRAL HIGHLANDS

CITY           SKY/WX    TMP DP  RH WIND       PRES   REMARKS
ALBUQUERQUE    MOCLDY    83  43  24 S8        30.03S
DOUBLE EAGLE   CLEAR     79  43  27 S9        30.06S
CLINES CORNERS PTCLDY    67  41  38 W8        30.17S
BELEN          FAIR      80  42  25 S7        30.02R
SOCORRO        FAIR      84  40  21 S9        30.01R

$$
NMZ524>526-539-540-310300-
SOUTHCENTRAL MOUNTAINS

CITY           SKY/WX    TMP DP  RH WIND       PRES   REMARKS
RUIDOSO        NOT AVBL

$$
NMZ527>531-310300-
NORTHEAST HIGHLANDS/NORTHEAST PLAINS

CITY           SKY/WX    TMP DP  RH WIND       PRES   REMARKS
LAS VEGAS      PTCLDY    67  38  34 SW9       30.15S
RATON          PTCLDY    72  38  29 W8        30.05R
CLAYTON        PTCLDY    74  49  41 S13       29.98S

$$
NMZ532>537-310300-
EASTCENTRAL PLAINS

CITY           SKY/WX    TMP DP  RH WIND       PRES   REMARKS
TUCUMCARI      PTCLDY    87  45  23 SW15      29.92S
CANNON AFB     CLOUDY    84  48  28 S8        30.01R
CLOVIS AIRPORT   N/A     81  46  30 S14       30.02R

$$
NMZ028-029-538-310300-
SOUTHEAST PLAINS

CITY           SKY/WX    TMP DP  RH WIND       PRES   REMARKS
ROSWELL        PTCLDY    86  43  22 S7        29.95R
CARLSBAD       CLEAR     88  36  15 S8        29.93R
HOBBS          CLEAR     84  41  21 E12       30.00R


$$


USA.gov is the U.S. government's official web portal to all federal, state and local government web resources and services.